K6OUA-11 Weather Reports


Display with metric or nautical units.
time (UTC)temp
F
wind
direction
speed
MPH
gust
MPH
rain 1hr
in
rain 24hr
in
rain mn
in
humidity
%
barometer
mb
20171119175114 73 45 9.0 16.0 0.00 0.00 0.00 14 1013.0
20171119174813 73 2 8.0 11.0 0.00 0.00 0.00 14 1013.0
20171119174559 73 85 5.0 15.0 0.00 0.00 0.00 14 1012.8
20171119174512 73 85 5.0 15.0 0.00 0.00 0.00 14 1012.8
20171119174307 73 4 14.0 14.0 0.00 0.00 0.00 13 1013.0
20171119174211 73 4 14.0 14.0 0.00 0.00 0.00 13 1013.0
20171119174113 74 9 3.0 7.0 0.00 0.00 0.00 15 1013.0
20171119173910 74 9 3.0 7.0 0.00 0.00 0.00 15 1013.0
20171119173651 74 337 3.0 11.0 0.00 0.00 0.00 15 1012.9
20171119173608 74 337 3.0 11.0 0.00 0.00 0.00 15 1012.9
20171119173050 74 72 9.0 9.0 0.00 0.00 0.00 15 1012.9
20171119173006 74 72 9.0 9.0 0.00 0.00 0.00 15 1012.9
20171119172832 73 92 4.0 8.0 0.00 0.00 0.00 15 1013.1
20171119172705 73 92 4.0 8.0 0.00 0.00 0.00 15 1013.1
20171119172404 73 11 8.0 15.0 0.00 0.00 0.00 15 1013.0
20171119172104 73 90 4.0 12.0 0.00 0.00 0.00 16 1013.0
20171119171802 73 90 3.0 6.0 0.00 0.00 0.00 16 1013.1
20171119171557 73 92 4.0 7.0 0.00 0.00 0.00 16 1013.2
20171119171501 73 92 4.0 7.0 0.00 0.00 0.00 16 1013.2
20171119171200 73 87 5.0 7.0 0.00 0.00 0.00 16 1013.2
20171119170859 73 65 3.0 6.0 0.00 0.00 0.00 16 1012.9
20171119170728 72 47 3.0 6.0 0.00 0.00 0.00 16 1013.0
20171119170558 72 47 3.0 6.0 0.00 0.00 0.00 16 1013.0
20171119170412 72 67 4.0 6.0 0.00 0.00 0.00 16 1013.0
20171119170256 72 67 4.0 6.0 0.00 0.00 0.00 16 1013.0
20171119170113 72 99 6.0 7.0 0.00 0.00 0.00 16 1012.9
20171119165955 72 99 6.0 7.0 0.00 0.00 0.00 16 1012.9
20171119165352 71 153 2.0 5.0 0.00 0.00 0.00 17 1013.0
20171119164842 70 105 2.0 5.0 0.00 0.00 0.00 17 1012.9
20171119164751 70 105 2.0 5.0 0.00 0.00 0.00 17 1012.9
20171119164604 70 185 1.0 3.0 0.00 0.00 0.00 17 1012.9
20171119164450 70 185 1.0 3.0 0.00 0.00 0.00 17 1012.9
20171119164336 70 229 1.0 4.0 0.00 0.00 0.00 17 1013.1
20171119164148 70 229 1.0 4.0 0.00 0.00 0.00 17 1013.1
20171119164040 69 252 1.0 8.0 0.00 0.00 0.00 17 1013.1
20171119163848 69 252 1.0 8.0 0.00 0.00 0.00 17 1013.1
20171119163648 69 114 4.0 7.0 0.00 0.00 0.00 18 1013.0
20171119163547 69 114 4.0 7.0 0.00 0.00 0.00 18 1013.0
20171119163245 68 130 3.0 4.0 0.00 0.00 0.00 18 1012.9
20171119162944 68 105 3.0 4.0 0.00 0.00 0.00 18 1012.9
20171119162819 67 123 3.0 6.0 0.00 0.00 0.00 18 1012.8
20171119162643 67 123 3.0 6.0 0.00 0.00 0.00 18 1012.8
20171119162342 67 105 6.0 8.0 0.00 0.00 0.00 18 1012.8
20171119162041 67 114 5.0 6.0 0.00 0.00 0.00 18 1012.7
20171119161844 66 120 3.0 5.0 0.00 0.00 0.00 18 1012.6
20171119161740 66 120 3.0 5.0 0.00 0.00 0.00 18 1012.6
20171119161522 66 166 1.0 5.0 0.00 0.00 0.00 18 1012.7
20171119161438 66 166 1.0 5.0 0.00 0.00 0.00 18 1012.7
20171119161257 65 63 3.0 4.0 0.00 0.00 0.00 18 1012.6
20171119161138 65 63 3.0 4.0 0.00 0.00 0.00 18 1012.6
20171119160837 65 85 3.0 7.0 0.00 0.00 0.00 18 1012.5
20171119160624 65 99 4.0 8.0 0.00 0.00 0.00 18 1012.4
20171119160535 65 99 4.0 8.0 0.00 0.00 0.00 18 1012.4
20171119160033 64 87 7.0 7.0 0.00 0.00 0.00 18 1012.3
20171119155933 64 87 7.0 7.0 0.00 0.00 0.00 18 1012.3
20171119155632 64 47 3.0 8.0 0.00 0.00 0.00 17 1012.2
20171119155417 64 74 8.0 8.0 0.00 0.00 0.00 17 1012.3
20171119155332 64 74 8.0 8.0 0.00 0.00 0.00 17 1012.3
20171119154839 64 42 7.0 7.0 0.00 0.00 0.00 18 1012.4
20171119154728 64 42 7.0 7.0 0.00 0.00 0.00 18 1012.4
20171119154428 63 39 2.0 7.0 0.00 0.00 0.00 18 1012.2
20171119154337 63 117 7.0 8.0 0.00 0.00 0.00 18 1012.2
20171119154127 63 117 7.0 8.0 0.00 0.00 0.00 18 1012.2
20171119153931 63 94 8.0 8.0 0.00 0.00 0.00 18 1012.2
20171119153826 63 94 8.0 8.0 0.00 0.00 0.00 18 1012.2
20171119153619 63 117 3.0 10.0 0.00 0.00 0.00 18 1012.2
20171119153524 63 117 3.0 10.0 0.00 0.00 0.00 18 1012.2
20171119153223 63 90 6.0 9.0 0.00 0.00 0.00 18 1012.3
20171119153006 62 90 6.0 9.0 0.00 0.00 0.00 18 1012.0
20171119152922 62 90 6.0 9.0 0.00 0.00 0.00 18 1012.0
20171119152722 63 90 6.0 9.0 0.00 0.00 0.00 18 1012.5
20171119152621 63 90 6.0 9.0 0.00 0.00 0.00 18 1012.5
20171119152534 62 60 3.0 10.0 0.00 0.00 0.00 18 1012.2
20171119152320 62 60 3.0 10.0 0.00 0.00 0.00 18 1012.2
20171119152018 62 128 4.0 5.0 0.00 0.00 0.00 19 1012.4
20171119151719 62 74 6.0 9.0 0.00 0.00 0.00 18 1012.2
20171119151524 62 87 6.0 9.0 0.00 0.00 0.00 18 1012.1
20171119151417 62 87 6.0 9.0 0.00 0.00 0.00 18 1012.1
20171119151116 62 72 15.0 19.0 0.00 0.00 0.00 18 1012.2
20171119150732 61 85 9.0 9.0 0.00 0.00 0.00 19 1012.1
20171119150513 61 85 9.0 9.0 0.00 0.00 0.00 19 1012.1
20171119150212 61 90 5.0 11.0 0.00 0.00 0.00 19 1012.3
20171119145911 61 108 4.0 11.0 0.00 0.00 0.00 18 1012.3
20171119145611 61 87 5.0 13.0 0.00 0.00 0.00 19 1012.3
20171119145309 60 58 2.0 13.0 0.00 0.00 0.00 19 1012.3
20171119145008 60 92 7.0 15.0 0.00 0.00 0.00 19 1012.4
20171119144854 60 85 6.0 13.0 0.00 0.00 0.00 19 1012.2
20171119144813 60 85 6.0 13.0 0.00 0.00 0.00 19 1012.2
20171119144706 60 85 6.0 13.0 0.00 0.00 0.00 19 1012.2
20171119144517 60 49 4.0 11.0 0.00 0.00 0.00 19 1012.2
20171119144406 60 49 4.0 11.0 0.00 0.00 0.00 19 1012.2
20171119144252 60 131 2.0 6.0 0.00 0.00 0.00 19 1011.9
20171119144105 60 131 2.0 6.0 0.00 0.00 0.00 19 1011.9
20171119144028 60 60 5.0 9.0 0.00 0.00 0.00 20 1012.0
20171119143904 60 60 5.0 9.0 0.00 0.00 0.00 20 1012.0
20171119143803 60 60 5.0 9.0 0.00 0.00 0.00 20 1012.0
20171119143502 60 92 6.0 13.0 0.00 0.00 0.00 20 1011.9
20171119143202 60 94 9.0 12.0 0.00 0.00 0.00 19 1011.8
20171119142957 59 92 7.0 10.0 0.00 0.00 0.00 19 1011.9
20171119142900 59 92 7.0 10.0 0.00 0.00 0.00 19 1011.9
20171119142653 59 92 8.0 10.0 0.00 0.00 0.00 19 1011.8
20171119142558 59 92 8.0 10.0 0.00 0.00 0.00 19 1011.8
20171119142405 59 81 7.0 14.0 0.00 0.00 0.00 19 1011.7
20171119142258 59 81 7.0 14.0 0.00 0.00 0.00 19 1011.7
20171119141957 59 90 5.0 9.0 0.00 0.00 0.00 20 1011.8
20171119141452 59 81 9.0 10.0 0.00 0.00 0.00 20 1011.8
20171119141354 59 81 9.0 10.0 0.00 0.00 0.00 20 1011.8
20171119141159 58 103 9.0 10.0 0.00 0.00 0.00 20 1012.0
20171119141053 58 103 9.0 10.0 0.00 0.00 0.00 20 1012.0
20171119140525 58 90 7.0 9.0 0.00 0.00 0.00 19 1012.1
20171119140451 58 90 7.0 9.0 0.00 0.00 0.00 19 1012.1
20171119140303 58 90 7.0 12.0 0.00 0.00 0.00 20 1012.1
20171119140150 58 90 7.0 12.0 0.00 0.00 0.00 20 1012.1
20171119140005 59 108 7.0 12.0 0.00 0.00 0.00 19 1012.0
20171119135849 59 108 7.0 12.0 0.00 0.00 0.00 19 1012.0
20171119135441 59 96 7.0 13.0 0.00 0.00 0.00 19 1012.2
20171119135252 59 96 7.0 13.0 0.00 0.00 0.00 19 1012.2
20171119135247 59 96 7.0 13.0 0.00 0.00 0.00 19 1012.2
20171119134740 58 90 7.0 13.0 0.00 0.00 0.00 19 1012.2
20171119134644 58 90 7.0 13.0 0.00 0.00 0.00 19 1012.2
20171119134556 58 94 5.0 13.0 0.00 0.00 0.00 19 1012.1
20171119134447 58 94 5.0 13.0 0.00 0.00 0.00 19 1012.1
20171119134343 58 94 5.0 13.0 0.00 0.00 0.00 19 1012.1
20171119134303 58 90 9.0 10.0 0.00 0.00 0.00 20 1012.3
20171119134043 58 90 9.0 10.0 0.00 0.00 0.00 20 1012.3
20171119133900 58 103 5.0 8.0 0.00 0.00 0.00 19 1012.4
20171119133741 58 103 5.0 8.0 0.00 0.00 0.00 19 1012.4
20171119133528 58 90 8.0 8.0 0.00 0.00 0.00 19 1012.4
20171119133439 58 90 8.0 8.0 0.00 0.00 0.00 19 1012.4
20171119133141 58 96 7.0 9.0 0.00 0.00 0.00 19 1012.3
20171119132948 58 121 6.0 9.0 0.00 0.00 0.00 20 1012.1
20171119132838 58 121 6.0 9.0 0.00 0.00 0.00 20 1012.1
20171119132536 58 119 6.0 9.0 0.00 0.00 0.00 20 1012.3
20171119132336 58 103 6.0 9.0 0.00 0.00 0.00 19 1012.3
20171119132235 58 103 6.0 9.0 0.00 0.00 0.00 19 1012.3
20171119131934 58 90 6.0 9.0 0.00 0.00 0.00 19 1012.2
20171119131744 58 108 5.0 7.0 0.00 0.00 0.00 20 1012.3
20171119131634 58 108 5.0 7.0 0.00 0.00 0.00 20 1012.3
20171119131422 58 121 3.0 7.0 0.00 0.00 0.00 19 1012.1
20171119131334 58 121 3.0 7.0 0.00 0.00 0.00 19 1012.1
20171119131332 58 121 3.0 7.0 0.00 0.00 0.00 19 1012.1
20171119130730 59 96 6.0 6.0 0.00 0.00 0.00 20 1012.1
20171119130544 59 112 2.0 9.0 0.00 0.00 0.00 19 1012.2
20171119130429 59 112 2.0 9.0 0.00 0.00 0.00 19 1012.2
20171119130319 59 102 6.0 8.0 0.00 0.00 0.00 19 1011.8
20171119130128 59 102 6.0 8.0 0.00 0.00 0.00 19 1011.8
20171119125826 59 117 5.0 10.0 0.00 0.00 0.00 19 1011.8
20171119125632 59 110 3.0 6.0 0.00 0.00 0.00 19 1011.9
20171119125526 59 110 3.0 6.0 0.00 0.00 0.00 19 1011.9
20171119125030 59 110 6.0 9.0 0.00 0.00 0.00 19 1011.8
20171119124924 59 110 6.0 9.0 0.00 0.00 0.00 19 1011.8
20171119124720 60 78 8.0 9.0 0.00 0.00 0.00 18 1011.7
20171119124622 60 78 8.0 9.0 0.00 0.00 0.00 18 1011.7
20171119124421 60 157 3.0 7.0 0.00 0.00 0.00 19 1011.7
20171119124321 60 157 3.0 7.0 0.00 0.00 0.00 19 1011.7
20171119124020 60 108 7.0 9.0 0.00 0.00 0.00 19 1011.6
20171119123758 60 120 4.0 10.0 0.00 0.00 0.00 19 1011.6
20171119123719 60 120 4.0 10.0 0.00 0.00 0.00 19 1011.6
20171119123417 60 45 4.0 10.0 0.00 0.00 0.00 18 1011.7
20171119123241 60 140 3.0 8.0 0.00 0.00 0.00 19 1011.6
20171119123117 60 140 3.0 8.0 0.00 0.00 0.00 19 1011.6
20171119122613 60 65 7.0 10.0 0.00 0.00 0.00 18 1011.6
20171119122515 60 65 7.0 10.0 0.00 0.00 0.00 18 1011.6
20171119122213 60 72 9.0 14.0 0.00 0.00 0.00 18 1011.6
20171119121912 60 57 3.0 14.0 0.00 0.00 0.00 19 1011.7
20171119121759 60 140 2.0 11.0 0.00 0.00 0.00 19 1011.5
20171119121611 60 140 2.0 11.0 0.00 0.00 0.00 19 1011.5
20171119121108 60 57 4.0 11.0 0.00 0.00 0.00 20 1011.4
20171119121009 60 57 4.0 11.0 0.00 0.00 0.00 20 1011.4
20171119120509 59 58 6.0 6.0 0.00 0.00 0.00 20 1011.6
20171119120407 59 58 6.0 6.0 0.00 0.00 0.00 20 1011.6
20171119120200 59 76 5.0 9.0 0.00 0.00 0.00 19 1011.6
20171119120106 59 76 5.0 9.0 0.00 0.00 0.00 19 1011.6
20171119115923 59 78 7.0 11.0 0.00 0.00 0.00 20 1011.6
20171119115805 59 78 7.0 11.0 0.00 0.00 0.00 20 1011.6
20171119115300 59 153 1.0 7.0 0.00 0.00 0.00 20 1011.9
20171119115202 59 153 1.0 7.0 0.00 0.00 0.00 20 1011.9
20171119115006 59 115 5.0 10.0 0.00 0.00 0.00 20 1011.9
20171119114901 59 115 5.0 10.0 0.00 0.00 0.00 20 1011.9
20171119114701 59 58 5.0 10.0 0.00 0.00 0.00 20 1011.8
20171119114601 59 58 5.0 10.0 0.00 0.00 0.00 20 1011.8
20171119114259 59 83 5.0 5.0 0.00 0.00 0.00 20 1011.9
20171119114136 59 232 1.0 5.0 0.00 0.00 0.00 21 1012.0
20171119113958 59 232 1.0 5.0 0.00 0.00 0.00 21 1012.0
20171119113807 59 92 4.0 5.0 0.00 0.00 0.00 21 1012.1
20171119113657 59 92 4.0 5.0 0.00 0.00 0.00 21 1012.1
20171119113506 59 139 2.0 7.0 0.00 0.00 0.00 21 1012.0
20171119113356 59 139 2.0 7.0 0.00 0.00 0.00 21 1012.0
20171119113055 59 117 4.0 9.0 0.00 0.00 0.00 21 1012.1
20171119112938 59 132 9.0 10.0 0.00 0.00 0.00 20 1012.0
20171119112754 59 132 9.0 10.0 0.00 0.00 0.00 20 1012.0
20171119112606 58 74 6.0 7.0 0.00 0.00 0.00 20 1012.2
20171119112454 58 74 6.0 7.0 0.00 0.00 0.00 20 1012.2
20171119112152 58 87 6.0 7.0 0.00 0.00 0.00 21 1012.4
20171119111852 59 141 2.0 5.0 0.00 0.00 0.00 21 1012.4
20171119111705 59 135 3.0 4.0 0.00 0.00 0.00 21 1012.6
20171119111549 59 135 3.0 4.0 0.00 0.00 0.00 21 1012.6
20171119111405 59 144 2.0 7.0 0.00 0.00 0.00 21 1012.4
20171119111248 59 144 2.0 7.0 0.00 0.00 0.00 21 1012.4
20171119110645 59 128 3.0 5.0 0.00 0.00 0.00 21 1012.5
20171119110435 59 110 2.0 5.0 0.00 0.00 0.00 20 1012.3
20171119110345 59 110 2.0 5.0 0.00 0.00 0.00 20 1012.3
20171119110207 59 132 2.0 5.0 0.00 0.00 0.00 20 1012.4
20171119110043 59 132 2.0 5.0 0.00 0.00 0.00 20 1012.4
20171119105941 59 114 3.0 6.0 0.00 0.00 0.00 21 1012.3
20171119105743 59 114 3.0 6.0 0.00 0.00 0.00 21 1012.3
20171119105442 59 114 4.0 6.0 0.00 0.00 0.00 20 1012.5
20171119105318 59 110 3.0 6.0 0.00 0.00 0.00 21 1012.5
20171119105140 59 110 3.0 6.0 0.00 0.00 0.00 21 1012.5
20171119104839 59 144 3.0 6.0 0.00 0.00 0.00 21 1012.5
20171119104700 59 126 3.0 5.0 0.00 0.00 0.00 21 1012.5
20171119104538 59 126 3.0 5.0 0.00 0.00 0.00 21 1012.5
20171119104237 59 186 3.0 8.0 0.00 0.00 0.00 21 1012.5
20171119104025 59 112 2.0 8.0 0.00 0.00 0.00 21 1012.6
20171119103936 59 112 2.0 8.0 0.00 0.00 0.00 21 1012.6
20171119103812 59 101 1.0 3.0 0.00 0.00 0.00 20 1012.6
20171119103635 59 101 1.0 3.0 0.00 0.00 0.00 20 1012.6
20171119103033 59 94 3.0 5.0 0.00 0.00 0.00 20 1012.6
20171119102828 59 99 5.0 5.0 0.00 0.00 0.00 21 1012.6
20171119102732 59 99 5.0 5.0 0.00 0.00 0.00 21 1012.6
20171119102551 59 141 2.0 4.0 0.00 0.00 0.00 21 1012.6
20171119102430 59 141 2.0 4.0 0.00 0.00 0.00 21 1012.6
20171119102234 59 132 3.0 4.0 0.00 0.00 0.00 21 1012.5
20171119102129 59 132 3.0 4.0 0.00 0.00 0.00 21 1012.5
20171119101828 60 110 3.0 4.0 0.00 0.00 0.00 21 1012.5
20171119101654 60 222 2.0 3.0 0.00 0.00 0.00 21 1012.4
20171119101526 60 222 2.0 3.0 0.00 0.00 0.00 21 1012.4
20171119101226 60 162 3.0 4.0 0.00 0.00 0.00 21 1012.2
20171119100925 60 119 2.0 10.0 0.00 0.00 0.00 20 1012.2
20171119100624 60 72 10.0 10.0 0.00 0.00 0.00 21 1012.3
20171119100400 60 101 4.0 7.0 0.00 0.00 0.00 21 1012.1
20171119100323 60 101 4.0 7.0 0.00 0.00 0.00 21 1012.1
20171119100141 60 121 3.0 7.0 0.00 0.00 0.00 20 1012.0
20171119100022 60 121 3.0 7.0 0.00 0.00 0.00 20 1012.0
20171119095821 60 74 6.0 7.0 0.00 0.00 0.00 21 1012.2
20171119095720 60 74 6.0 7.0 0.00 0.00 0.00 21 1012.2
20171119095419 60 126 3.0 5.0 0.00 0.00 0.00 21 1012.2
20171119095240 60 76 4.0 5.0 0.00 0.00 0.00 20 1012.2
20171119095118 60 76 4.0 5.0 0.00 0.00 0.00 20 1012.2
20171119094639 60 130 4.0 6.0 0.00 0.00 0.00 21 1012.3
20171119094516 60 130 4.0 6.0 0.00 0.00 0.00 21 1012.3
20171119094215 60 128 3.0 6.0 0.00 0.00 0.00 21 1012.3
20171119094017 60 139 3.0 7.0 0.00 0.00 0.00 21 1012.4
20171119093914 60 139 3.0 7.0 0.00 0.00 0.00 21 1012.4
20171119093656 60 90 5.0 5.0 0.00 0.00 0.00 21 1012.4
20171119093613 60 90 5.0 5.0 0.00 0.00 0.00 21 1012.4
20171119093404 60 130 2.0 6.0 0.00 0.00 0.00 21 1012.6
20171119093312 60 130 2.0 6.0 0.00 0.00 0.00 21 1012.6
20171119093045 60 105 4.0 6.0 0.00 0.00 0.00 20 1012.8
20171119093010 60 105 4.0 6.0 0.00 0.00 0.00 20 1012.8
20171119092804 60 103 4.0 5.0 0.00 0.00 0.00 20 1012.9
20171119092710 60 103 4.0 5.0 0.00 0.00 0.00 20 1012.9
20171119092517 60 126 3.0 5.0 0.00 0.00 0.00 20 1012.8
20171119092408 60 126 3.0 5.0 0.00 0.00 0.00 20 1012.8
20171119092238 60 110 3.0 7.0 0.00 0.00 0.00 20 1012.7
20171119092107 60 110 3.0 7.0 0.00 0.00 0.00 20 1012.7
20171119091806 60 191 1.0 8.0 0.00 0.00 0.00 20 1012.8
20171119091547 60 81 6.0 8.0 0.00 0.00 0.00 20 1013.1
20171119091505 60 81 6.0 8.0 0.00 0.00 0.00 20 1013.1
20171119091307 60 101 4.0 5.0 0.00 0.00 0.00 20 1013.1
20171119091204 60 101 4.0 5.0 0.00 0.00 0.00 20 1013.1
20171119090954 60 132 4.0 5.0 0.00 0.00 0.00 21 1012.9
20171119090903 60 132 4.0 5.0 0.00 0.00 0.00 21 1012.9
20171119090718 60 135 2.0 6.0 0.00 0.00 0.00 20 1013.0
20171119090603 60 135 2.0 6.0 0.00 0.00 0.00 20 1013.0
20171119090406 60 110 4.0 6.0 0.00 0.00 0.00 20 1012.9
20171119090302 60 110 4.0 6.0 0.00 0.00 0.00 20 1012.9
20171119090300 60 110 4.0 6.0 0.00 0.00 0.00 20 1012.9
20171119085521 60 108 4.0 9.0 0.00 0.00 0.00 21 1013.0
20171119085357 60 108 4.0 9.0 0.00 0.00 0.00 21 1013.0
20171119085159 60 108 3.0 8.0 0.00 0.00 0.00 20 1012.8
20171119085056 60 108 3.0 8.0 0.00 0.00 0.00 20 1012.8
20171119084910 60 90 8.0 8.0 0.00 0.00 0.00 20 1013.0
20171119084755 60 90 8.0 8.0 0.00 0.00 0.00 20 1013.0
20171119084534 60 135 2.0 6.0 0.00 0.00 0.00 20 1013.0
20171119084454 60 135 2.0 6.0 0.00 0.00 0.00 20 1013.0
20171119084307 60 126 3.0 3.0 0.00 0.00 0.00 20 1013.0
20171119084153 60 126 3.0 3.0 0.00 0.00 0.00 20 1013.0
20171119083945 60 170 1.0 4.0 0.00 0.00 0.00 21 1013.1
20171119083852 60 170 1.0 4.0 0.00 0.00 0.00 21 1013.1
20171119083730 60 159 1.0 5.0 0.00 0.00 0.00 20 1012.9
20171119083551 60 159 1.0 5.0 0.00 0.00 0.00 20 1012.9
20171119083332 60 117 2.0 5.0 0.00 0.00 0.00 20 1013.0
20171119083249 60 117 2.0 5.0 0.00 0.00 0.00 20 1013.0
20171119082738 60 217 1.0 6.0 0.00 0.00 0.00 20 1013.0
20171119082647 60 217 1.0 6.0 0.00 0.00 0.00 20 1013.0
20171119082451 60 45 6.0 6.0 0.00 0.00 0.00 20 1012.9
20171119082346 60 45 6.0 6.0 0.00 0.00 0.00 20 1012.9
20171119082151 60 101 4.0 6.0 0.00 0.00 0.00 20 1013.0
20171119082045 60 101 4.0 6.0 0.00 0.00 0.00 20 1013.0
20171119081744 60 189 1.0 8.0 0.00 0.00 0.00 20 1013.1
20171119081528 60 101 5.0 7.0 0.00 0.00 0.00 20 1013.0
20171119081443 60 101 5.0 7.0 0.00 0.00 0.00 20 1013.0
20171119081319 60 87 4.0 7.0 0.00 0.00 0.00 20 1013.0
20171119081142 60 87 4.0 7.0 0.00 0.00 0.00 20 1013.0
20171119080930 60 138 1.0 5.0 0.00 0.00 0.00 20 1013.1
20171119080841 60 138 1.0 5.0 0.00 0.00 0.00 20 1013.1
20171119080540 60 321 1.0 4.0 0.00 0.00 0.00 20 1013.0
20171119080239 61 150 2.0 3.0 0.00 0.00 0.00 20 1013.1
20171119080028 61 159 2.0 7.0 0.00 0.00 0.00 20 1013.1
20171119075937 61 159 2.0 7.0 0.00 0.00 0.00 20 1013.1
20171119075335 61 99 3.0 6.0 0.00 0.00 0.00 20 1013.2
20171119075155 61 128 4.0 4.0 0.00 0.00 0.00 20 1013.3
20171119075034 61 128 4.0 4.0 0.00 0.00 0.00 20 1013.3
20171119074819 61 123 3.0 5.0 0.00 0.00 0.00 20 1013.2
20171119074734 61 123 3.0 5.0 0.00 0.00 0.00 20 1013.2
20171119074543 61 177 0.0 4.0 0.00 0.00 0.00 20 1013.1
20171119074432 61 177 0.0 4.0 0.00 0.00 0.00 20 1013.1
20171119074131 61 112 4.0 6.0 0.00 0.00 0.00 20 1013.1
20171119073830 61 175 2.0 9.0 0.00 0.00 0.00 19 1013.2
20171119073530 61 114 5.0 9.0 0.00 0.00 0.00 20 1013.0
20171119073331 61 100 4.0 6.0 0.00 0.00 0.00 20 1013.1
20171119073227 61 100 4.0 6.0 0.00 0.00 0.00 20 1013.1
20171119072926 61 96 6.0 6.0 0.00 0.00 0.00 20 1013.2
20171119072625 62 139 3.0 5.0 0.00 0.00 0.00 20 1013.3
20171119072412 62 164 3.0 6.0 0.00 0.00 0.00 20 1013.2
20171119072324 62 164 3.0 6.0 0.00 0.00 0.00 20 1013.2
20171119072153 62 78 2.0 6.0 0.00 0.00 0.00 19 1013.4
20171119072023 62 78 2.0 6.0 0.00 0.00 0.00 19 1013.4
20171119071722 62 135 2.0 4.0 0.00 0.00 0.00 19 1013.4
20171119071115 63 162 2.0 6.0 0.00 0.00 0.00 19 1013.7
20171119070947 63 175 3.0 6.0 0.00 0.00 0.00 18 1013.5
20171119070814 63 175 3.0 6.0 0.00 0.00 0.00 18 1013.5
20171119070604 63 123 2.0 4.0 0.00 0.00 0.00 18 1013.6
20171119070513 63 123 2.0 4.0 0.00 0.00 0.00 18 1013.6
20171119070005 64 6 8.0 9.0 0.00 0.00 0.00 18 1013.4
20171119065910 64 6 8.0 9.0 0.00 0.00 0.00 18 1013.4
20171119065750 64 27 11.0 12.0 0.00 0.00 0.00 18 1013.5
20171119065609 64 27 11.0 12.0 0.00 0.00 0.00 18 1013.5
20171119065438 64 37 3.0 12.0 0.00 0.00 0.00 18 1013.4
20171119065308 64 37 3.0 12.0 0.00 0.00 0.00 18 1013.4
20171119065126 64 51 7.0 12.0 0.00 0.00 0.00 17 1013.4
20171119065007 64 51 7.0 12.0 0.00 0.00 0.00 17 1013.4
20171119064813 64 60 4.0 17.0 0.00 0.00 0.00 18 1013.5
20171119064706 64 60 4.0 17.0 0.00 0.00 0.00 18 1013.5
20171119064520 64 56 15.0 17.0 0.00 0.00 0.00 18 1013.4
20171119064404 64 56 15.0 17.0 0.00 0.00 0.00 18 1013.4
20171119064302 64 40 7.0 15.0 0.00 0.00 0.00 17 1013.4
20171119064104 64 40 7.0 15.0 0.00 0.00 0.00 17 1013.4
20171119063803 64 15 15.0 16.0 0.00 0.00 0.00 17 1013.5
20171119063619 64 20 9.0 12.0 0.00 0.00 0.00 18 1013.2
20171119063502 64 20 9.0 12.0 0.00 0.00 0.00 18 1013.2
20171119063200 64 7 4.0 10.0 0.00 0.00 0.00 18 1013.3
20171119062948 64 101 4.0 12.0 0.00 0.00 0.00 18 1013.3
20171119062859 64 101 4.0 12.0 0.00 0.00 0.00 18 1013.3
20171119062714 64 60 10.0 17.0 0.00 0.00 0.00 17 1013.3
20171119062558 64 60 10.0 17.0 0.00 0.00 0.00 17 1013.3
20171119062408 64 15 13.0 21.0 0.00 0.00 0.00 17 1013.3
20171119062257 64 15 13.0 21.0 0.00 0.00 0.00 17 1013.3
20171119062126 64 49 21.0 21.0 0.00 0.00 0.00 17 1013.2
20171119061956 64 49 21.0 21.0 0.00 0.00 0.00 17 1013.2
20171119061812 64 36 7.0 15.0 0.00 0.00 0.00 18 1013.3
20171119061655 64 36 7.0 15.0 0.00 0.00 0.00 18 1013.3
20171119061353 64 33 11.0 17.0 0.00 0.00 0.00 18 1013.2
20171119061303 64 49 9.0 17.0 0.00 0.00 0.00 18 1013.1
20171119061052 64 49 9.0 17.0 0.00 0.00 0.00 18 1013.1
20171119060535 64 37 7.0 14.0 0.00 0.00 0.00 18 1013.1
20171119060450 64 37 7.0 14.0 0.00 0.00 0.00 18 1013.1
20171119060234 64 30 6.0 16.0 0.00 0.00 0.00 18 1013.2
20171119060149 64 30 6.0 16.0 0.00 0.00 0.00 18 1013.2
20171119060003 64 38 7.0 13.0 0.00 0.00 0.00 18 1013.3
20171119055848 64 38 7.0 13.0 0.00 0.00 0.00 18 1013.3
20171119055635 64 33 11.0 13.0 0.00 0.00 0.00 18 1013.3
20171119055546 64 33 11.0 13.0 0.00 0.00 0.00 18 1013.3
20171119055246 64 80 3.0 13.0 0.00 0.00 0.00 18 1013.2
20171119055031 64 38 8.0 16.0 0.00 0.00 0.00 18 1013.2
20171119054945 64 38 8.0 16.0 0.00 0.00 0.00 18 1013.2
20171119054734 64 18 13.0 14.0 0.00 0.00 0.00 18 1013.3
20171119054644 64 18 13.0 14.0 0.00 0.00 0.00 18 1013.3
20171119054456 64 31 10.0 15.0 0.00 0.00 0.00 18 1013.3
20171119054342 64 31 10.0 15.0 0.00 0.00 0.00 18 1013.3
20171119054122 64 65 9.0 15.0 0.00 0.00 0.00 18 1013.1
20171119054041 64 65 9.0 15.0 0.00 0.00 0.00 18 1013.1
20171119053850 64 47 6.0 12.0 0.00 0.00 0.00 19 1013.3
20171119053740 64 47 6.0 12.0 0.00 0.00 0.00 19 1013.3
20171119053536 64 36 12.0 13.0 0.00 0.00 0.00 18 1013.4
20171119053439 64 36 12.0 13.0 0.00 0.00 0.00 18 1013.4
20171119053253 64 49 5.0 15.0 0.00 0.00 0.00 18 1013.4
20171119053138 64 49 5.0 15.0 0.00 0.00 0.00 18 1013.4
20171119052922 64 38 12.0 15.0 0.00 0.00 0.00 18 1013.5
20171119052837 64 38 12.0 15.0 0.00 0.00 0.00 18 1013.5
20171119052708 64 45 13.0 13.0 0.00 0.00 0.00 18 1013.4
20171119052536 64 45 13.0 13.0 0.00 0.00 0.00 18 1013.4
20171119052345 64 31 6.0 13.0 0.00 0.00 0.00 18 1013.5
20171119052235 64 31 6.0 13.0 0.00 0.00 0.00 18 1013.5
20171119051727 64 25 5.0 15.0 0.00 0.00 0.00 18 1013.4
20171119051633 64 25 5.0 15.0 0.00 0.00 0.00 18 1013.4
20171119051431 64 10 8.0 15.0 0.00 0.00 0.00 18 1013.2
20171119051332 64 10 8.0 15.0 0.00 0.00 0.00 18 1013.2
20171119051137 64 37 9.0 13.0 0.00 0.00 0.00 18 1013.4
20171119051031 64 37 9.0 13.0 0.00 0.00 0.00 18 1013.4
20171119050843 65 20 8.0 15.0 0.00 0.00 0.00 18 1013.4
20171119050730 65 20 8.0 15.0 0.00 0.00 0.00 18 1013.4
20171119050428 65 51 11.0 15.0 0.00 0.00 0.00 18 1013.3
20171119050243 65 56 14.0 14.0 0.00 0.00 0.00 18 1013.3
20171119050127 65 56 14.0 14.0 0.00 0.00 0.00 18 1013.3
20171119045942 65 31 13.0 15.0 0.00 0.00 0.00 18 1013.4
20171119045826 65 31 13.0 15.0 0.00 0.00 0.00 18 1013.4
20171119045322 64 61 7.0 15.0 0.00 0.00 0.00 18 1013.3
20171119045224 64 61 7.0 15.0 0.00 0.00 0.00 18 1013.3
20171119045016 64 13 11.0 13.0 0.00 0.00 0.00 18 1013.3
20171119044923 64 13 11.0 13.0 0.00 0.00 0.00 18 1013.3
20171119044723 64 40 11.0 12.0 0.00 0.00 0.00 18 1013.2
20171119044621 64 40 11.0 12.0 0.00 0.00 0.00 18 1013.2
20171119044427 65 17 10.0 11.0 0.00 0.00 0.00 18 1013.3
20171119044320 65 17 10.0 11.0 0.00 0.00 0.00 18 1013.3
20171119044019 65 31 11.0 15.0 0.00 0.00 0.00 18 1013.1
20171119043718 65 16 5.0 18.0 0.00 0.00 0.00 18 1013.2
20171119043546 65 47 10.0 13.0 0.00 0.00 0.00 19 1013.1
20171119043417 65 47 10.0 13.0 0.00 0.00 0.00 19 1013.1
20171119043233 65 92 3.0 14.0 0.00 0.00 0.00 18 1013.2
20171119043116 65 92 3.0 14.0 0.00 0.00 0.00 18 1013.2
20171119042912 65 36 9.0 13.0 0.00 0.00 0.00 19 1013.2
20171119042815 65 36 9.0 13.0 0.00 0.00 0.00 19 1013.2
20171119042615 65 33 13.0 13.0 0.00 0.00 0.00 19 1013.1
20171119042513 65 33 13.0 13.0 0.00 0.00 0.00 19 1013.1
20171119042213 65 29 7.0 14.0 0.00 0.00 0.00 19 1013.2
20171119042013 65 18 12.0 12.0 0.00 0.00 0.00 18 1013.3
20171119041912 65 18 12.0 12.0 0.00 0.00 0.00 18 1013.3
20171119041310 65 27 10.0 13.0 0.00 0.00 0.00 19 1013.3
20171119041008 65 36 12.0 13.0 0.00 0.00 0.00 18 1013.1
20171119040830 65 33 9.0 15.0 0.00 0.00 0.00 18 1013.2
20171119040707 65 33 9.0 15.0 0.00 0.00 0.00 18 1013.2
20171119040405 65 27 10.0 12.0 0.00 0.00 0.00 19 1013.1
20171119040215 65 15 12.0 15.0 0.00 0.00 0.00 18 1013.2
20171119040105 65 15 12.0 15.0 0.00 0.00 0.00 18 1013.2
20171119035847 65 33 9.0 18.0 0.00 0.00 0.00 18 1013.2
20171119035804 65 33 9.0 18.0 0.00 0.00 0.00 18 1013.2
20171119035607 65 51 16.0 17.0 0.00 0.00 0.00 19 1013.0
20171119035503 65 51 16.0 17.0 0.00 0.00 0.00 19 1013.0
20171119035247 65 22 6.0 10.0 0.00 0.00 0.00 20 1013.0
20171119035202 65 22 6.0 10.0 0.00 0.00 0.00 20 1013.0
20171119035004 65 45 15.0 15.0 0.00 0.00 0.00 20 1013.0
20171119034901 65 45 15.0 15.0 0.00 0.00 0.00 20 1013.0
20171119034638 65 51 7.0 9.0 0.00 0.00 0.00 20 1013.0
20171119034559 65 51 7.0 9.0 0.00 0.00 0.00 20 1013.0
20171119034125 65 22 4.0 12.0 0.00 0.00 0.00 20 1013.1
20171119033957 65 22 4.0 12.0 0.00 0.00 0.00 20 1013.1
20171119033731 65 0 6.0 11.0 0.00 0.00 0.00 19 1013.0
20171119033656 65 0 6.0 11.0 0.00 0.00 0.00 19 1013.0
20171119033143 65 47 7.0 9.0 0.00 0.00 0.00 20 1013.0
20171119033054 65 47 7.0 9.0 0.00 0.00 0.00 20 1013.0
20171119032752 65 51 6.0 16.0 0.00 0.00 0.00 19 1013.0
20171119032533 65 40 6.0 14.0 0.00 0.00 0.00 19 1013.0
20171119032452 65 40 6.0 14.0 0.00 0.00 0.00 19 1013.0
20171119032302 65 29 7.0 14.0 0.00 0.00 0.00 19 1013.0
20171119032151 65 29 7.0 14.0 0.00 0.00 0.00 19 1013.0
20171119031850 65 22 12.0 13.0 0.00 0.00 0.00 19 1013.0
20171119031636 65 36 13.0 13.0 0.00 0.00 0.00 19 1013.0
20171119031549 65 36 13.0 13.0 0.00 0.00 0.00 19 1013.0
20171119031248 66 36 11.0 14.0 0.00 0.00 0.00 19 1013.1
20171119031047 66 31 10.0 17.0 0.00 0.00 0.00 19 1013.0
20171119030946 66 31 10.0 17.0 0.00 0.00 0.00 19 1013.0
20171119030457 66 24 5.0 15.0 0.00 0.00 0.00 19 1013.1
20171119030344 66 24 5.0 15.0 0.00 0.00 0.00 19 1013.1
20171119030254 66 22 14.0 17.0 0.00 0.00 0.00 18 1013.0
20171119030043 66 22 14.0 17.0 0.00 0.00 0.00 18 1013.0
20171119025859 66 22 17.0 17.0 0.00 0.00 0.00 19 1013.0
20171119025742 66 22 17.0 17.0 0.00 0.00 0.00 19 1013.0
20171119025559 66 33 13.0 16.0 0.00 0.00 0.00 19 1013.1
20171119025441 66 33 13.0 16.0 0.00 0.00 0.00 19 1013.1
20171119025140 66 11 5.0 14.0 0.00 0.00 0.00 19 1013.1
20171119024839 66 31 10.0 17.0 0.00 0.00 0.00 19 1013.0
20171119024642 66 24 12.0 17.0 0.00 0.00 0.00 18 1013.0
20171119024538 66 24 12.0 17.0 0.00 0.00 0.00 18 1013.0
20171119024348 66 27 8.0 14.0 0.00 0.00 0.00 19 1013.0
20171119024236 66 27 8.0 14.0 0.00 0.00 0.00 19 1013.0
20171119024107 66 45 13.0 16.0 0.00 0.00 0.00 19 1012.9
20171119023936 66 45 13.0 16.0 0.00 0.00 0.00 19 1012.9
20171119023750 66 27 14.0 18.0 0.00 0.00 0.00 19 1012.9
20171119023633 66 27 14.0 18.0 0.00 0.00 0.00 19 1012.9
20171119023528 66 45 14.0 16.0 0.00 0.00 0.00 19 1012.8
20171119023334 66 45 14.0 16.0 0.00 0.00 0.00 19 1012.8
20171119023032 66 51 10.0 13.0 0.00 0.00 0.00 19 1013.0
20171119022731 66 22 11.0 13.0 0.00 0.00 0.00 19 1013.1
20171119022430 66 22 9.0 16.0 0.00 0.00 0.00 19 1012.9
20171119022128 66 32 6.0 13.0 0.00 0.00 0.00 19 1012.9
20171119021828 66 45 4.0 13.0 0.00 0.00 0.00 19 1012.9
20171119021712 66 16 10.0 16.0 0.00 0.00 0.00 19 1012.9
20171119021526 66 16 10.0 16.0 0.00 0.00 0.00 19 1012.9
20171119021225 66 25 7.0 11.0 0.00 0.00 0.00 19 1012.8
20171119021010 66 52 5.0 14.0 0.00 0.00 0.00 19 1012.8
20171119020924 66 52 5.0 14.0 0.00 0.00 0.00 19 1012.8
20171119020623 66 38 9.0 17.0 0.00 0.00 0.00 19 1012.9
20171119020150 66 47 12.0 16.0 0.00 0.00 0.00 18 1012.7
20171119020021 66 47 12.0 16.0 0.00 0.00 0.00 18 1012.7
20171119015802 66 29 12.0 16.0 0.00 0.00 0.00 19 1012.8
20171119015720 66 29 12.0 16.0 0.00 0.00 0.00 19 1012.8
20171119015529 66 78 7.0 12.0 0.00 0.00 0.00 19 1012.6
20171119015419 66 78 7.0 12.0 0.00 0.00 0.00 19 1012.6
20171119015118 66 27 5.0 16.0 0.00 0.00 0.00 18 1012.7
20171119014618 66 40 12.0 16.0 0.00 0.00 0.00 18 1012.5
20171119014522 66 40 12.0 16.0 0.00 0.00 0.00 18 1012.5
20171119014257 66 45 10.0 14.0 0.00 0.00 0.00 18 1012.6
20171119014214 66 45 10.0 14.0 0.00 0.00 0.00 18 1012.6
20171119014011 66 18 12.0 16.0 0.00 0.00 0.00 18 1012.6
20171119013913 66 18 12.0 16.0 0.00 0.00 0.00 18 1012.6
20171119013740 67 38 7.0 15.0 0.00 0.00 0.00 18 1012.8
20171119013612 67 38 7.0 15.0 0.00 0.00 0.00 18 1012.8
20171119013443 67 22 9.0 15.0 0.00 0.00 0.00 18 1012.6
20171119013312 67 22 9.0 15.0 0.00 0.00 0.00 18 1012.6
20171119013010 67 13 14.0 15.0 0.00 0.00 0.00 18 1012.7
20171119012837 67 29 12.0 15.0 0.00 0.00 0.00 18 1012.4
20171119012709 67 29 12.0 15.0 0.00 0.00 0.00 18 1012.4
20171119012453 67 42 13.0 13.0 0.00 0.00 0.00 18 1012.6
20171119012407 67 42 13.0 13.0 0.00 0.00 0.00 18 1012.6
20171119012107 67 36 10.0 15.0 0.00 0.00 0.00 18 1012.5
20171119011858 67 17 8.0 15.0 0.00 0.00 0.00 18 1012.5
20171119011806 67 17 8.0 15.0 0.00 0.00 0.00 18 1012.5
20171119011611 67 36 13.0 15.0 0.00 0.00 0.00 18 1012.6
20171119011504 67 36 13.0 15.0 0.00 0.00 0.00 18 1012.6
20171119011251 67 15 15.0 15.0 0.00 0.00 0.00 18 1012.5
20171119011204 67 15 15.0 15.0 0.00 0.00 0.00 18 1012.5
20171119010943 67 11 9.0 17.0 0.00 0.00 0.00 18 1012.6
20171119010903 67 11 9.0 17.0 0.00 0.00 0.00 18 1012.6
20171119010601 67 20 12.0 16.0 0.00 0.00 0.00 18 1012.5
20171119005958 68 42 9.0 14.0 0.00 0.00 0.00 18 1012.7
20171119005657 68 15 12.0 16.0 0.00 0.00 0.00 18 1012.7
20171119005056 68 47 6.0 12.0 0.00 0.00 0.00 18 1012.6
20171119004754 69 49 5.0 12.0 0.00 0.00 0.00 18 1012.7
20171119004453 69 22 9.0 12.0 0.00 0.00 0.00 17 1012.7
20171119004316 69 42 9.0 13.0 0.00 0.00 0.00 17 1012.6
20171119004152 69 42 9.0 13.0 0.00 0.00 0.00 17 1012.6
20171119003852 69 33 13.0 14.0 0.00 0.00 0.00 17 1012.5
20171119003549 69 29 11.0 13.0 0.00 0.00 0.00 17 1012.7
20171119003416 69 22 9.0 19.0 0.00 0.00 0.00 18 1012.6
20171119003250 69 22 9.0 19.0 0.00 0.00 0.00 18 1012.6
20171119002809 70 45 7.0 14.0 0.00 0.00 0.00 18 1012.6
20171119002648 70 45 7.0 14.0 0.00 0.00 0.00 18 1012.6
20171119002646 70 45 7.0 14.0 0.00 0.00 0.00 18 1012.6
20171119002500 70 12 9.0 13.0 0.00 0.00 0.00 17 1012.6
20171119002346 70 12 9.0 13.0 0.00 0.00 0.00 17 1012.6
20171119002227 70 37 9.0 15.0 0.00 0.00 0.00 17 1012.5
20171119002044 70 37 9.0 15.0 0.00 0.00 0.00 17 1012.5
20171119001832 70 15 10.0 15.0 0.00 0.00 0.00 17 1012.5
20171119001743 70 15 10.0 15.0 0.00 0.00 0.00 17 1012.5
20171119001610 70 45 9.0 15.0 0.00 0.00 0.00 17 1012.7
20171119001442 70 45 9.0 15.0 0.00 0.00 0.00 17 1012.7
20171119001141 71 40 7.0 16.0 0.00 0.00 0.00 17 1012.6
20171119000840 71 48 5.0 19.0 0.00 0.00 0.00 17 1012.7
20171119000712 71 33 10.0 14.0 0.00 0.00 0.00 17 1012.7
20171119000539 71 33 10.0 14.0 0.00 0.00 0.00 17 1012.7
20171119000238 71 10 6.0 11.0 0.00 0.00 0.00 17 1012.6
20171119000031 71 40 9.0 12.0 0.00 0.00 0.00 18 1012.6
20171118235937 71 40 9.0 12.0 0.00 0.00 0.00 18 1012.6
20171118235635 71 352 2.0 12.0 0.00 0.00 0.00 18 1012.6
20171118235335 72 36 8.0 18.0 0.00 0.00 0.00 18 1012.6
20171118235037 72 315 4.0 14.0 0.00 0.00 0.00 17 1012.6
20171118235034 72 315 4.0 14.0 0.00 0.00 0.00 17 1012.6
20171118234816 72 13 9.0 14.0 0.00 0.00 0.00 17 1012.6
20171118234732 72 13 9.0 14.0 0.00 0.00 0.00 17 1012.6
20171118234431 72 9 14.0 15.0 0.00 0.00 0.00 17 1012.7
20171118234130 72 7 11.0 15.0 0.00 0.00 0.00 17 1012.8
20171118233831 72 16 8.0 15.0 0.00 0.00 0.00 17 1012.6
20171118233829 72 16 8.0 15.0 0.00 0.00 0.00 17 1012.6
20171118233640 72 0 14.0 14.0 0.00 0.00 0.00 17 1012.7
20171118233529 72 0 14.0 14.0 0.00 0.00 0.00 17 1012.7
20171118233227 72 60 8.0 12.0 0.00 0.00 0.00 18 1012.7
20171118232926 73 11 7.0 16.0 0.00 0.00 0.00 17 1012.7
20171118232625 73 27 7.0 16.0 0.00 0.00 0.00 17 1012.7
20171118232022 74 18 12.0 13.0 0.00 0.00 0.00 17 1012.7
20171118231804 74 4 6.0 16.0 0.00 0.00 0.00 17 1012.7
20171118231723 74 4 6.0 16.0 0.00 0.00 0.00 17 1012.7
20171118231721 74 4 6.0 16.0 0.00 0.00 0.00 17 1012.7
20171118231420 74 24 9.0 16.0 0.00 0.00 0.00 17 1012.7
20171118231153 74 15 13.0 15.0 0.00 0.00 0.00 16 1012.7
20171118231120 74 15 13.0 15.0 0.00 0.00 0.00 16 1012.7
20171118230913 74 2 7.0 12.0 0.00 0.00 0.00 17 1012.7
20171118230818 74 2 7.0 12.0 0.00 0.00 0.00 17 1012.7
20171118230608 74 31 8.0 12.0 0.00 0.00 0.00 18 1012.7
20171118230516 74 31 8.0 12.0 0.00 0.00 0.00 18 1012.7
20171118230447 74 35 6.0 16.0 0.00 0.00 0.00 17 1012.6
20171118230319 74 35 6.0 16.0 0.00 0.00 0.00 17 1012.6
20171118230217 74 35 6.0 16.0 0.00 0.00 0.00 17 1012.6
20171118230015 75 33 11.0 16.0 0.00 0.00 0.00 17 1012.5
20171118225914 75 33 11.0 16.0 0.00 0.00 0.00 17 1012.5
20171118225714 75 20 10.0 13.0 0.00 0.00 0.00 17 1012.6
20171118225613 75 20 10.0 13.0 0.00 0.00 0.00 17 1012.6
20171118225313 75 42 6.0 14.0 0.00 0.00 0.00 17 1012.6
20171118225126 75 7 4.0 13.0 0.00 0.00 0.00 17 1012.8
20171118225011 75 7 4.0 13.0 0.00 0.00 0.00 17 1012.8
20171118224753 75 32 4.0 9.0 0.00 0.00 0.00 18 1012.6
20171118224712 75 32 4.0 9.0 0.00 0.00 0.00 18 1012.6
20171118224409 75 36 8.0 13.0 0.00 0.00 0.00 18 1012.5
20171118224204 75 45 7.0 12.0 0.00 0.00 0.00 18 1012.5
20171118224108 75 45 7.0 12.0 0.00 0.00 0.00 18 1012.5
20171118223852 75 33 7.0 15.0 0.00 0.00 0.00 17 1012.5
20171118223808 75 33 7.0 15.0 0.00 0.00 0.00 17 1012.5
20171118223655 75 27 10.0 13.0 0.00 0.00 0.00 18 1012.6
20171118223509 75 27 10.0 13.0 0.00 0.00 0.00 18 1012.6
20171118223506 75 27 10.0 13.0 0.00 0.00 0.00 18 1012.6
20171118223314 75 55 4.0 12.0 0.00 0.00 0.00 19 1012.7
20171118223206 75 55 4.0 12.0 0.00 0.00 0.00 19 1012.7
20171118223204 75 55 4.0 12.0 0.00 0.00 0.00 19 1012.7
20171118222959 75 36 7.0 13.0 0.00 0.00 0.00 18 1012.7
20171118222903 75 36 7.0 13.0 0.00 0.00 0.00 18 1012.7
20171118222603 75 29 11.0 15.0 0.00 0.00 0.00 17 1012.7
20171118222345 75 4 9.0 14.0 0.00 0.00 0.00 17 1012.7
20171118222301 75 4 9.0 14.0 0.00 0.00 0.00 17 1012.7
20171118221745 75 50 11.0 14.0 0.00 0.00 0.00 18 1012.8
20171118221659 75 50 11.0 14.0 0.00 0.00 0.00 18 1012.8
20171118221443 75 49 11.0 15.0 0.00 0.00 0.00 18 1012.8
20171118221358 75 49 11.0 15.0 0.00 0.00 0.00 18 1012.8
20171118221140 75 42 14.0 18.0 0.00 0.00 0.00 18 1012.7
20171118221057 75 42 14.0 18.0 0.00 0.00 0.00 18 1012.7
20171118220849 75 6 11.0 14.0 0.00 0.00 0.00 18 1012.6
20171118220756 75 6 11.0 14.0 0.00 0.00 0.00 18 1012.6
20171118220551 76 37 10.0 14.0 0.00 0.00 0.00 18 1012.6
20171118220455 76 37 10.0 14.0 0.00 0.00 0.00 18 1012.6
20171118220242 76 32 7.0 13.0 0.00 0.00 0.00 18 1012.7
20171118220153 76 32 7.0 13.0 0.00 0.00 0.00 18 1012.7
20171118215935 76 27 13.0 15.0 0.00 0.00 0.00 17 1012.8
20171118215854 76 27 13.0 15.0 0.00 0.00 0.00 17 1012.8
20171118215552 76 54 9.0 15.0 0.00 0.00 0.00 18 1012.7
20171118214726 76 27 12.0 16.0 0.00 0.00 0.00 18 1012.9
20171118214647 76 27 12.0 16.0 0.00 0.00 0.00 18 1012.9
20171118214424 76 33 8.0 14.0 0.00 0.00 0.00 18 1012.9
20171118214347 76 33 8.0 14.0 0.00 0.00 0.00 18 1012.9
20171118214046 76 11 8.0 17.0 0.00 0.00 0.00 17 1012.9
20171118213745 76 36 17.0 18.0 0.00 0.00 0.00 17 1013.0
20171118213444 76 36 11.0 18.0 0.00 0.00 0.00 18 1013.0
20171118213238 76 27 9.0 18.0 0.00 0.00 0.00 17 1013.1
20171118213143 76 27 9.0 18.0 0.00 0.00 0.00 17 1013.1
20171118212933 76 33 14.0 15.0 0.00 0.00 0.00 18 1013.2
20171118212842 76 33 14.0 15.0 0.00 0.00 0.00 18 1013.2
20171118212615 75 45 6.0 14.0 0.00 0.00 0.00 18 1013.1
20171118212541 75 45 6.0 14.0 0.00 0.00 0.00 18 1013.1
20171118212240 75 38 6.0 20.0 0.00 0.00 0.00 18 1013.3
20171118212040 75 42 12.0 20.0 0.00 0.00 0.00 17 1013.2
20171118211938 75 42 12.0 20.0 0.00 0.00 0.00 17 1013.2
20171118211637 75 40 12.0 15.0 0.00 0.00 0.00 17 1013.0
20171118211336 75 69 10.0 17.0 0.00 0.00 0.00 18 1013.4
20171118210833 75 13 14.0 19.0 0.00 0.00 0.00 17 1013.4
20171118210734 75 13 14.0 19.0 0.00 0.00 0.00 17 1013.4
20171118210432 75 31 10.0 19.0 0.00 0.00 0.00 18 1013.3
20171118210132 75 42 8.0 19.0 0.00 0.00 0.00 17 1013.4
20171118205926 75 51 3.0 25.0 0.00 0.00 0.00 18 1013.5
20171118205831 75 51 3.0 25.0 0.00 0.00 0.00 18 1013.5
20171118205529 75 24 25.0 25.0 0.00 0.00 0.00 17 1013.3
20171118205313 75 63 9.0 19.0 0.00 0.00 0.00 18 1013.5
20171118205229 75 63 9.0 19.0 0.00 0.00 0.00 18 1013.5
20171118205013 75 19 10.0 19.0 0.00 0.00 0.00 17 1013.6
20171118204929 75 19 10.0 19.0 0.00 0.00 0.00 17 1013.6
20171118204709 75 20 13.0 21.0 0.00 0.00 0.00 18 1013.9
20171118204625 75 20 13.0 21.0 0.00 0.00 0.00 18 1013.9
20171118204121 75 72 8.0 19.0 0.00 0.00 0.00 18 1013.9
20171118204024 75 72 8.0 19.0 0.00 0.00 0.00 18 1013.9
20171118203800 75 27 16.0 22.0 0.00 0.00 0.00 17 1014.0
20171118203723 75 27 16.0 22.0 0.00 0.00 0.00 17 1014.0
20171118203518 75 29 18.0 22.0 0.00 0.00 0.00 17 1014.1
20171118203422 75 29 18.0 22.0 0.00 0.00 0.00 17 1014.1
20171118203120 75 9 13.0 18.0 0.00 0.00 0.00 18 1014.0
20171118202951 75 18 10.0 14.0 0.00 0.00 0.00 18 1014.1
20171118202913 75 18 10.0 14.0 0.00 0.00 0.00 18 1014.1
20171118202819 75 18 10.0 14.0 0.00 0.00 0.00 18 1014.1
20171118202519 74 20 12.0 18.0 0.00 0.00 0.00 18 1014.1
20171118202217 74 11 15.0 18.0 0.00 0.00 0.00 19 1014.2
20171118202011 74 13 9.0 20.0 0.00 0.00 0.00 18 1014.1
20171118201915 74 13 9.0 20.0 0.00 0.00 0.00 18 1014.1
20171118201615 74 22 8.0 20.0 0.00 0.00 0.00 18 1014.1
20171118201411 74 25 15.0 23.0 0.00 0.00 0.00 18 1014.1
20171118201315 74 25 15.0 23.0 0.00 0.00 0.00 18 1014.1
20171118200821 74 58 14.0 16.0 0.00 0.00 0.00 18 1014.3
20171118200712 74 58 14.0 16.0 0.00 0.00 0.00 18 1014.3
20171118200456 74 30 12.0 21.0 0.00 0.00 0.00 19 1014.3
20171118200411 74 30 12.0 21.0 0.00 0.00 0.00 19 1014.3
20171118200206 74 38 15.0 21.0 0.00 0.00 0.00 19 1014.3
20171118200110 74 38 15.0 21.0 0.00 0.00 0.00 19 1014.3
20171118195847 74 29 11.0 21.0 0.00 0.00 0.00 18 1014.3
20171118195808 74 29 11.0 21.0 0.00 0.00 0.00 18 1014.3
20171118195550 74 38 12.0 21.0 0.00 0.00 0.00 18 1014.5
20171118195507 74 38 12.0 21.0 0.00 0.00 0.00 18 1014.5
20171118195206 74 22 13.0 22.0 0.00 0.00 0.00 18 1014.5
20171118195014 74 18 13.0 22.0 0.00 0.00 0.00 18 1014.8
20171118194904 74 18 13.0 22.0 0.00 0.00 0.00 18 1014.8
20171118194710 74 36 14.0 19.0 0.00 0.00 0.00 18 1014.7
20171118194604 74 36 14.0 19.0 0.00 0.00 0.00 18 1014.7
20171118194057 74 30 12.0 18.0 0.00 0.00 0.00 19 1014.8
20171118194002 74 30 12.0 18.0 0.00 0.00 0.00 19 1014.8
20171118193735 74 31 17.0 17.0 0.00 0.00 0.00 19 1014.8
20171118193701 74 31 17.0 17.0 0.00 0.00 0.00 19 1014.8
20171118193458 74 355 17.0 17.0 0.00 0.00 0.00 19 1014.7
20171118193400 74 355 17.0 17.0 0.00 0.00 0.00 19 1014.7
20171118193153 74 27 10.0 18.0 0.00 0.00 0.00 19 1014.8
20171118193059 74 27 10.0 18.0 0.00 0.00 0.00 19 1014.8
20171118192832 74 20 15.0 18.0 0.00 0.00 0.00 19 1014.8
20171118192757 74 20 15.0 18.0 0.00 0.00 0.00 19 1014.8
20171118192629 73 33 6.0 16.0 0.00 0.00 0.00 20 1015.0
20171118192457 73 33 6.0 16.0 0.00 0.00 0.00 20 1015.0
20171118192248 73 15 15.0 20.0 0.00 0.00 0.00 19 1014.9
20171118192155 73 15 15.0 20.0 0.00 0.00 0.00 19 1014.9
20171118191948 73 22 14.0 20.0 0.00 0.00 0.00 19 1015.0
20171118191854 73 22 14.0 20.0 0.00 0.00 0.00 19 1015.0
20171118191553 73 351 15.0 16.0 0.00 0.00 0.00 20 1015.3
20171118191251 73 2 13.0 16.0 0.00 0.00 0.00 20 1015.3
20171118191053 73 37 8.0 19.0 0.00 0.00 0.00 20 1015.3
20171118190951 73 37 8.0 19.0 0.00 0.00 0.00 20 1015.3
20171118190802 73 11 16.0 20.0 0.00 0.00 0.00 20 1015.1
20171118190649 73 11 16.0 20.0 0.00 0.00 0.00 20 1015.1
20171118190349 73 33 13.0 20.0 0.00 0.00 0.00 20 1015.4
20171118185445 73 47 13.0 16.0 0.00 0.00 0.00 21 1015.1
20171118185301 73 42 15.0 16.0 0.00 0.00 0.00 22 1015.4
20171118185144 73 42 15.0 16.0 0.00 0.00 0.00 22 1015.4
20171118184951 73 47 9.0 18.0 0.00 0.00 0.00 21 1015.6
20171118184843 73 47 9.0 18.0 0.00 0.00 0.00 21 1015.6
20171118184542 73 24 16.0 16.0 0.00 0.00 0.00 21 1015.5
20171118184314 73 40 10.0 18.0 0.00 0.00 0.00 22 1015.6
20171118184240 73 40 10.0 18.0 0.00 0.00 0.00 22 1015.6
20171118184058 73 18 11.0 21.0 0.00 0.00 0.00 21 1015.6
20171118183938 73 18 11.0 21.0 0.00 0.00 0.00 21 1015.6
20171118183639 73 24 13.0 21.0 0.00 0.00 0.00 21 1015.6
20171118183446 73 57 4.0 18.0 0.00 0.00 0.00 22 1015.5
20171118183337 73 57 4.0 18.0 0.00 0.00 0.00 22 1015.5
20171118182735 73 36 13.0 18.0 0.00 0.00 0.00 22 1015.4
20171118182508 73 18 14.0 14.0 0.00 0.00 0.00 22 1015.4
20171118182434 73 18 14.0 14.0 0.00 0.00 0.00 22 1015.4
20171118182222 73 38 10.0 17.0 0.00 0.00 0.00 22 1015.6
20171118182133 73 38 10.0 17.0 0.00 0.00 0.00 22 1015.6
20171118181952 73 36 9.0 13.0 0.00 0.00 0.00 24 1015.5
20171118181832 73 36 9.0 13.0 0.00 0.00 0.00 24 1015.5
20171118181620 72 9 6.0 13.0 0.00 0.00 0.00 24 1015.4
20171118181530 72 9 6.0 13.0 0.00 0.00 0.00 24 1015.4
20171118181230 72 0 5.0 14.0 0.00 0.00 0.00 24 1015.6
20171118180929 72 45 11.0 15.0 0.00 0.00 0.00 24 1015.4
20171118180628 72 20 12.0 19.0 0.00 0.00 0.00 23 1015.4
20171118180326 72 47 13.0 16.0 0.00 0.00 0.00 24 1015.4
20171118180108 72 57 6.0 14.0 0.00 0.00 0.00 25 1015.4
20171118180026 72 57 6.0 14.0 0.00 0.00 0.00 25 1015.4
20171118175808 72 42 7.0 15.0 0.00 0.00 0.00 25 1015.2
20171118175724 72 42 7.0 15.0 0.00 0.00 0.00 25 1015.2
20171118175515 72 65 10.0 16.0 0.00 0.00 0.00 25 1015.4
20171118175423 72 65 10.0 16.0 0.00 0.00 0.00 25 1015.4